{"data":{"norad_id":68072,"intl_designator":"2026-042D","name":"STARLINK-36972","alt_names":[],"object_type":"PAYLOAD","status":"ACTIVE","operator":null,"country":"US","launch_date":"2026-03-04","launch_site_code":"AFETR","launch_vehicle":null,"mission":null,"orbit_class":"UNKNOWN","rcs_meters":null,"size_class":null,"mass_kg":null,"dimensions":null,"purposes":["comms"],"wikipedia_slug":null,"has_3d_model":false,"image_url":null,"decayed_at":null,"tle_current":{"epoch":"2026-05-24T19:49:36.596928Z","epoch_age_seconds":100184,"freshness":"FRESH","line1":"1 68072U 26042D   26144.82611802  .00014433  00000+0  43749-3 0  9996","line2":"2 68072  53.1588 184.2419 0001227  89.1175 270.9969 15.34397819 13979","mean_motion":15.34397819,"eccentricity":0.0001227,"inclination_deg":53.1588,"raan_deg":184.2419,"arg_perigee_deg":89.1175,"mean_anomaly_deg":270.9969,"bstar":0.00043749,"rev_number":1397,"period_min":93.847891476963,"perigee_km":461.87035071355,"apogee_km":463.54909449927,"semimajor_km":6840.8467226064,"source":"CELESTRAK","updated_at":"2026-05-25T13:38:21.817696Z"}}}